Location: Cactus School
(34.5700°N, 118.0931°W)
Time: 18:23:49
(UTC-07:00)

Transit 4A - Pass Details

Date: 19 April 2024
Orbit: 871 x 971 km, 66.8° (Epoch: 21 May)

Event Time Altitude Azimuth Distance (km) Brightness Sun altitude
Rises 23:50:23 0° 321° (NW) 3,465 11.7 -41.5°
Reaches altitude 10° 23:53:07 10° 311° (NW) 2,529 10.7 -41.7°
Enters shadow 23:54:25 16° 303° (WNW) 2,137 10.2 -41.8°
Maximum altitude 23:58:06 30° 252° (WSW) 1,532 - -42.0°
Drops below altitude 10° 00:03:09 10° 193° (SSW) 2,556 - -42.3°
Sets 00:05:57 0° 183° (S) 3,508 - -42.5°
